MPEC 2008-E92 : 2008 EG32

The following Minor Planet Electronic Circular may be linked-to from your own Web pages, but must not otherwise be redistributed electronically.


Read MPEC 2008-E91 Read MPEC 2008-E93


M.P.E.C. 2008-E92                                Issued 2008 Mar. 11, 17:05 UT

     The Minor Planet Electronic Circulars contain information on unusual
         minor planets and routine data on comets.  They are published
   on behalf of Commission 20 of the International Astronomical Union by the
          Minor Planet Center, Smithsonian Astrophysical Observatory,
                          Cambridge, MA 02138, U.S.A.

             Prepared using the Tamkin Foundation Computer Network

                              MPC@CFA.HARVARD.EDU
          URL http://www.cfa.harvard.edu/iau/mpc.html  ISSN 1523-6714

                                   2008 EG32

Observations:
     K08E32G* C2008 03 11.38484 11 04 29.64 +00 18 02.9          18.6 V EE092703
     K08E32G  C2008 03 11.39031 11 04 37.38 +00 15 23.7          18.4 V EE092703
     K08E32G  C2008 03 11.39580 11 04 45.12 +00 12 46.8          18.6 V EE092703
     K08E32G  C2008 03 11.40130 11 04 52.71 +00 10 12.6          18.6 V EE092703
     K08E32G  C2008 03 11.43146 11 05 35.23 -00 03 55.4          18.4 V EE092703
     K08E32G  C2008 03 11.43192 11 05 35.91 -00 04 09.3          19.0 V EE092703
     K08E32G  C2008 03 11.43238 11 05 36.49 -00 04 21.6          18.5 V EE092703
     K08E32G  C2008 03 11.43286 11 05 37.24 -00 04 35.4          18.2 V EE092703
     K08E32G  C2008 03 11.44044 11 05 47.90 -00 08 06.0          18.2 V EE092G96
     K08E32G  C2008 03 11.44074 11 05 48.33 -00 08 14.6          18.1 V EE092G96
     K08E32G  C2008 03 11.44106 11 05 48.76 -00 08 23.4          18.3 V EE092G96
     K08E32G  C2008 03 11.44138 11 05 49.23 -00 08 32.0          18.5 V EE092G96

Observer details:
703 Catalina Sky Survey.  Observer A. Boattini.  Measurers E. C. Beshore,
    A. Boattini, G. J. Garradd, A. R. Gibbs, A. D. Grauer, R. E. Hill,
    R. A. Kowalski, S. M. Larson, R. H. McNaught.  0.68-m Schmidt + CCD.
G96 Mt. Lemmon Survey.  Observer S. M. Larson.  Measurers E. C. Beshore,
    A. Boattini, G. J. Garradd, A. R. Gibbs, A. D. Grauer, R. E. Hill,
    R. A. Kowalski, S. M. Larson, R. H. McNaught.  1.5-m reflector + CCD.

Orbital elements:
2008 EG32                                                Earth MOID = 0.0035 AU
Epoch 2008 May 14.0 TT = JDT 2454600.5                  MPC
M  55.14457              (2000.0)            P               Q
n   0.54000016     Peri.  133.04123     -0.54736880     -0.83678961
a   1.4935054      Node   350.12055     +0.74400643     -0.47941288
e   0.3878051      Incl.    4.36531     +0.38319945     -0.26447391
P   1.83           H   27.3           G   0.15           U   9
Residuals in seconds of arc
080311 703  0.2-  1.4+    080311 703  0.1+  0.9+    080311 G96  0.1-  0.0
080311 703  0.5+  1.2-    080311 703  0.6+  0.2-    080311 G96  0.0   0.3-
080311 703  0.8+  1.4-    080311 703  0.4-  0.3+    080311 G96  0.3-  0.3-
080311 703  1.4-  0.9+    080311 703  0.7+  0.1-    080311 G96  0.1-  0.0

Ephemeris:
2008 EG32                a,e,i = 1.49, 0.39, 4                   q = 0.9143
Date    TT    R. A. (2000) Decl.     Delta      r     Elong.  Phase     V
2008 03 05    01 31.00   +35 20.5    0.0201   0.980    54.0   125.1    24.0
2008 03 07    02 41.43   +44 05.6    0.0116   0.988    68.3   111.1    21.8
2008 03 09    07 56.91   +41 24.3    0.00673  0.997   121.9    57.8    18.5
2008 03 11    10 53.15   +03 52.9    0.0118   1.005   171.9     8.0    18.2
2008 03 13    11 33.33   -08 03.4    0.0204   1.014   169.0    10.7    19.6
2008 03 15    11 49.63   -12 41.0    0.0297   1.023   165.0    14.5    20.5
2008 03 17    11 58.34   -15 02.1    0.0392   1.033   163.4    15.9    21.2
2008 03 19    12 03.73   -16 25.0    0.0488   1.042   162.9    16.3    21.7
2008 03 21    12 07.36   -17 17.6    0.0586   1.052   162.9    16.1    22.1
2008 03 23    12 09.97   -17 52.5    0.0684   1.062   163.2    15.8    22.5
2008 03 25    12 11.91   -18 15.8    0.0785   1.073   163.5    15.3    22.8

Sonia Keys                   (C) Copyright 2008 MPC           M.P.E.C. 2008-E92

Read MPEC 2008-E91 Read MPEC 2008-E93


Our Web policy. Index to the CBAT/MPC/ICQ pages.

MPC

Valid HTML 4.01!